PSLV R/B, 43287

Orbit data source: Space-Track

PSLV R/B, 43287 is space debris in HEO originally from a launch on Wed, 11 Apr 2018 UTC launched from the Sirharikota (SRI). Debris objects in space refer to the collection of defunct objects orbiting the Earth. Examples of debris include non-operational satellites, rocket bodies, and fragments generated from explosions, collisions, or faulty payload assembly.

Loading next visibility...
Identifier
43287, 2018-035B
Orbit
HEO
Last TLE update
21 hours ago
Origin
Manufacturer
VSSC/LPSC
Mission
Spacecraft
Bus & Motor
PS-4, Unknown motor
Mass
920 kg wet, 920 kg dry
Launch date (UTC)
2018-04-11 (7 years ago)
Launch vehicle
Unknown
Launch site
Sirharikota (SRI)
Object type
Payload
Rocket body
Debris
Shape & HBR
Cyl + Cyl + 2 Nozzle, 3.238 m
Radar Cross Section
6.185 m², Large (>1 m²)

Expand to show TLE details & history

TLE from 21 hours ago
0 PSLV R/B
1 43287U 18035B   25186.03850681  .00004721  00000-0  61007-3 0  9995
2 43287  19.0858  54.1656 5647954 303.6743  14.6120  4.59830229110121
Epoch: 2025-07-05T00:55Z
TLE epoch observation values (Epoch: 2025-07-05T00:55:26.988Z)
Latitude
0.00026°
Longitude
117.01912°
Altitude
1,553.119 km
Speed
8.627 km/s
True Right ascension
03h 36m 39s
True Declination
0° 00' 01"
Sunlit
Object was in daylight at epoch
Visualization orbit readout
Latitude
11.18608°
Longitude
150.87285°
Altitude
4,139.808 km
Speed
7.05 km/s
Apparent Right ascension
03h 58m 42s
Apparent Declination
-12° 41' 44"
Sunlit
Object is in daylight
Visualization observer readout
Local Sidereal Time
09:57:09
Azimuth
259.956° W
Elevation
-7.814°
Doppler factor
1
Orbital elements
Apogee altitude
17,532.095 km
Perigee altitude
271.833 km
Semi-major axis
15,280.101 km
Eccentricity
0.5648
Inclination
19.0858°
RAAN
54.1656°
Arg. of periapsis
303.6743°
True anomaly
Unknown
Mean anomaly
14.612°
Eccentric anomaly
Unknown
Mean motion
1.14909 °/min
Orbital period
313.29 mins
BSTAR
0.00061007
Loading maneuver chart data...
Loading SW <> Apogee altitude chart data...
Loading historical data...
Loading historical data...
Loading historical data...
Loading historical data...
Loading historical data...
Loading historical data...
Loading historical data...
Other satellites on launch #35 in the year 2018 (2018-04-11 UTC)

PSLV R/B Visibility forecast

Observer location: undefined°, undefined°

Span
Click to sort rows by Start time (UTC) header in descending order
Start Az.
Max El. time (UTC)
Max El. Az.
Max El.
End time (UTC)
End Az.
237 mins2025-07-05 22:10:02.227Z253.367° W2025-07-05 23:42:02.227Z196.219° SSW40.491°2025-07-06 02:07:02.227Z137.985° SSE
191 mins2025-07-06 18:50:02.227Z217.728° SW2025-07-06 19:17:02.227Z150.565° SSE37.34°2025-07-06 22:01:02.227Z107.342° ESE
|